Omak, WA

12:36 AM PST on January 22, 2017 (GMT -0800)
Omak

Weather History for KOMK - March, 2012

Change the Weather History Date:

Saturday, March 24, 2012

  Actual Average Record
Temperature  
Mean Temperature 41 °F 45 °F  
Max Temperature 56 °F 56 °F 71 °F (1940)
Min Temperature 25 °F 33 °F 11 °F (1965)
Degree Days  
Heating Degree Days 24 20  
Month to date heating degree days 622 595  
Since 1 July heating degree days 5692 5456  
Cooling Degree Days 0 0  
Month to date cooling degree days 0 0  
Year to date cooling degree days 0 0  
Moisture  
Dew Point 20 °F    
Average Humidity 50    
Maximum Humidity 75    
Minimum Humidity 24    
Precipitation  
Precipitation 0.00 in 0.03 in 0.46 in (1972)
Month to date precipitation 1.07 0.95  
Year to date precipitation 3.30 4.25  
Sea Level Pressure  
Sea Level Pressure 30.08 in    
Wind  
Wind Speed 9 mph (NNW)    
Max Wind Speed 18 mph    
Max Gust Speed 24 mph    
Visibility 10 miles    
Events      
T = Trace of Precipitation, MM = Missing Value Source: NWS Daily Summary

Daily Weather History Graph

Daily Weather History Graph

Search for Another Location

Airport or City:

Trip Planner

Search our weather history database for the weather conditions in past years. The results will help you decide how hot, cold, wet, or windy it might be!

Date:

Astronomy

Mar. 24, 2012 Rise Set
Actual Time 6:51 AM PDT 7:17 PM PDT
Civil Twilight 6:20 AM PDT 7:49 PM PDT
Nautical Twilight 5:42 AM PDT 8:26 PM PDT
Astronomical Twilight 5:04 AM PDT 9:05 PM PDT
Moon 7:19 AM PDT (3/24) 9:58 PM PDT (3/24)
Length of Visible Light 13h 29m
Length of Day
12h 26m
Waxing Crescent, 4% of the Moon is Illuminated
Mar 24
Waxing Crescent
Mar 30
First Quarter
Apr 6
Full
Apr 13
Last Quarter
Apr 21
New

Hourly Weather History & Observations

Time (PDT) Temp. Windchill Dew Point Humidity Pressure Visibility Wind Dir Wind Speed Gust Speed Precip Events Conditions
12:53 AM 30.9 °F 23.5 °F 19.9 °F 64% 30.18 in 10.0 mi WNW 8.1 mph - N/A   Clear
1:53 AM 30.0 °F 24.1 °F 19.9 °F 66% 30.16 in 10.0 mi NW 5.8 mph - N/A   Clear
2:53 AM 28.0 °F 22.8 °F 19.0 °F 69% 30.16 in 10.0 mi NW 4.6 mph - N/A   Clear
3:53 AM 27.0 °F 21.6 °F 19.0 °F 72% 30.15 in 10.0 mi NNW 4.6 mph - N/A   Clear
4:53 AM 27.0 °F 23.0 °F 19.0 °F 72% 30.17 in 10.0 mi NNW 3.5 mph - N/A   Clear
5:53 AM 30.0 °F 24.1 °F 21.0 °F 69% 30.15 in 10.0 mi NNW 5.8 mph - N/A   Clear
6:53 AM 30.9 °F 22.2 °F 19.9 °F 64% 30.16 in 10.0 mi North 10.4 mph - N/A   Clear
7:53 AM 32.0 °F 22.5 °F 21.0 °F 64% 30.17 in 10.0 mi North 12.7 mph - N/A   Clear
8:53 AM 34.0 °F 24.6 °F 21.0 °F 59% 30.16 in 10.0 mi NNW 13.8 mph - N/A   Partly Cloudy
9:53 AM 37.0 °F 28.9 °F 19.0 °F 48% 30.15 in 10.0 mi North 12.7 mph - N/A   Overcast
10:53 AM 39.0 °F 31.0 °F 19.0 °F 45% 30.13 in 10.0 mi North 13.8 mph - N/A   Overcast
11:53 AM 42.1 °F 35.7 °F 19.0 °F 40% 30.10 in 10.0 mi North 11.5 mph 19.6 mph N/A   Scattered Clouds
12:53 PM 43.0 °F 36.4 °F 18.0 °F 37% 30.10 in 10.0 mi North 12.7 mph - N/A   Overcast
1:53 PM 48.9 °F - 21.9 °F 35% 30.05 in 10.0 mi North 11.5 mph 20.7 mph N/A   Mostly Cloudy
3:53 PM 54.0 °F - 21.9 °F 29% 29.99 in 10.0 mi North 11.5 mph - N/A   Clear
4:53 PM 55.0 °F - 19.9 °F 25% 29.99 in 10.0 mi North 9.2 mph - N/A   Clear
5:53 PM 54.0 °F - 19.0 °F 25% 29.97 in 10.0 mi North 9.2 mph - N/A   Clear
6:53 PM 46.0 °F 41.9 °F 21.9 °F 39% 29.98 in 10.0 mi North 8.1 mph - N/A   Clear
7:53 PM 41.0 °F 38.0 °F 21.9 °F 47% 29.99 in 10.0 mi NW 4.6 mph - N/A   Clear
8:53 PM 41.0 °F 35.8 °F 21.9 °F 47% 30.01 in 10.0 mi WNW 8.1 mph - N/A   Clear
9:53 PM 37.9 °F 33.5 °F 21.0 °F 51% 30.01 in 10.0 mi WNW 5.8 mph - N/A   Clear
10:53 PM 36.0 °F 32.1 °F 21.0 °F 55% 30.00 in 10.0 mi NW 4.6 mph - N/A   Clear
11:53 PM 34.0 °F 28.8 °F 21.0 °F 59% 29.98 in 10.0 mi NW 5.8 mph - N/A   Clear